Change the Weather History Date:

Friday, January 13, 2012

  Actual Average Record
Temperature  
Mean Temperature 25 °F 28 °F  
Max Temperature 45 °F 41 °F 50 °F (2000)
Min Temperature 5 °F 15 °F -7 °F (2013)
Degree Days  
Heating Degree Days 40 37  
Month to date heating degree days 458 490  
Since 1 July heating degree days 3002 3148  
Cooling Degree Days 0 0  
Month to date cooling degree days 0  
Year to date cooling degree days 0  
Moisture  
Dew Point -2 °F    
Average Humidity 42    
Maximum Humidity 69    
Minimum Humidity 14    
Precipitation  
Precipitation 0.00 in 0.02 in 0.30 in (2015)
Month to date precipitation 0.00 0.44  
Year to date precipitation 0.00 0.44  
Sea Level Pressure  
Sea Level Pressure 30.38 in    
Wind  
Wind Speed 7 mph (NE)    
Max Wind Speed 15 mph    
Max Gust Speed 20 mph    
Visibility 10 miles    
Events      
T = Trace of Precipitation, MM = Missing Value Source: NWS Daily Summary

Daily Weather History Graph

Daily Weather History Graph

Search for Another Location

Airport or City:

Trip Planner

Search our weather history database for the weather conditions in past years. The results will help you decide how hot, cold, wet, or windy it might be!

Date:

Astronomy

Jan. 13, 2012 Rise Set
Actual Time 7:28 AM MST 5:18 PM MST
Civil Twilight 6:59 AM MST 5:46 PM MST
Nautical Twilight 6:27 AM MST 6:19 PM MST
Astronomical Twilight 5:56 AM MST 6:50 PM MST
Moon 10:26 PM MST (1/13) 9:51 AM MST (1/13)
Length of Visible Light 10h 47m
Length of Day
9h 50m
Waning Gibbous, 78% of the Moon is Illuminated
Jan 13
Waning Gibbous
Jan 16
Last Quarter
Jan 23
New
Jan 30
First Quarter
Feb 7
Full

Hourly Weather History & Observations

Time (MST) Temp. Windchill Dew Point Humidity Pressure Visibility Wind Dir Wind Speed Gust Speed Precip Events Conditions
12:53 AM 8.1 °F -3.2 °F -2.9 °F 61% 30.30 in 10.0 mi East 6.9 mph - N/A   Clear
1:53 AM 9.0 °F -3.2 °F -2.0 °F 61% 30.30 in 10.0 mi ENE 8.1 mph - N/A   Clear
2:53 AM 6.1 °F -7.8 °F -2.9 °F 67% 30.31 in 10.0 mi ENE 9.2 mph - N/A   Clear
3:53 AM 6.1 °F -6.8 °F -2.9 °F 67% 30.31 in 10.0 mi ENE 8.1 mph - N/A   Clear
4:53 AM 6.1 °F -2.8 °F -4.0 °F 63% 30.34 in 10.0 mi East 4.6 mph - N/A   Clear
5:53 AM 5.0 °F -6.9 °F -4.0 °F 66% 30.39 in 10.0 mi East 6.9 mph - N/A   Clear
6:53 AM 6.1 °F -6.8 °F -2.9 °F 67% 30.43 in 10.0 mi ENE 8.1 mph - N/A   Clear
7:53 AM 6.1 °F -5.6 °F -2.9 °F 67% 30.47 in 10.0 mi ENE 6.9 mph - N/A   Clear
9:53 AM 28.9 °F 21.9 °F -0.0 °F 29% 30.43 in 10.0 mi ENE 6.9 mph - N/A   Clear
10:53 AM 36.0 °F - -2.0 °F 20% 30.42 in 10.0 mi Calm Calm - N/A   Clear
11:53 AM 39.9 °F 37.8 °F -0.9 °F 18% 30.38 in 10.0 mi Variable 3.5 mph - N/A   Clear
12:53 PM 43.0 °F 37.2 °F -4.0 °F 14% 30.35 in 10.0 mi West 10.4 mph - N/A   Clear
1:53 PM 43.0 °F 37.2 °F -4.0 °F 14% 30.34 in 10.0 mi West 10.4 mph - N/A   Clear
2:53 PM 45.0 °F 40.1 °F -2.9 °F 14% 30.33 in 10.0 mi WNW 9.2 mph - N/A   Clear
3:53 PM 44.1 °F 39.0 °F -2.9 °F 14% 30.34 in 10.0 mi West 9.2 mph - N/A   Clear
4:53 PM 39.0 °F 32.8 °F -2.9 °F 17% 30.36 in 10.0 mi West 9.2 mph - N/A   Clear
5:53 PM 33.1 °F 26.1 °F -2.0 °F 22% 30.41 in 10.0 mi WNW 8.1 mph - N/A   Clear
6:53 PM 21.9 °F - -2.9 °F 34% 30.48 in 10.0 mi Calm Calm - N/A   Clear
8:53 PM 16.0 °F 5.3 °F -0.9 °F 47% 30.47 in 10.0 mi ENE 8.1 mph - N/A   Clear
9:53 PM 14.0 °F 6.5 °F -0.9 °F 52% 30.43 in 10.0 mi ENE 4.6 mph - N/A   Clear
10:53 PM 12.9 °F 0.7 °F -0.9 °F 54% 30.43 in 10.0 mi ENE 9.2 mph - N/A   Clear
11:53 PM 14.0 °F 2.0 °F -0.9 °F 52% 30.41 in 10.0 mi ENE 9.2 mph - N/A   Clear